Regional Weather Roundup
Issued by NWS Jackson, KY

Home | Current Version | Previous Version | Text Only | Print | Product List | Glossary Off
Versions: 1 2 3 4 5 6 7 8 9 10 11 12 13 14 15 16 17 18 19 20 21 22 23 24 25 26 27 28 29 30 31 32 33 34 35 36 37 38 39 40 41 42 43 44 45 46 47 48 49 50

000
ASUS43 KJKL 210911
RWRJKL

EAST KENTUCKY HOURLY WEATHER ROUNDUP
NATIONAL WEATHER SERVICE JACKSON KY
400 AM EST SUN DEC 21 2014

NOTE: "FAIR" INDICATES FEW OR NO CLOUDS BELOW 12,000 FEET WITH
NO SIGNIFICANT WEATHER AND/OR OBSTRUCTIONS TO VISIBILITY.

* THESE REPORTS ARE NOT UNDER NWS QUALITY CONTROL AND MAY NOT
  REPORT WEATHER SUCH AS PRECIPITATION AND FOG.

KYZ079-080-083-085-087-088-110-112-115-119-120-211000
...EASTERN KENTUCKY...

CITY           SKY/WX    TMP DP  RH WIND       PRES   REMARKS
JACKSON        CLEAR     27  23  85 NE3       30.25F
LONDON         CLEAR     25 N/A N/A N5        30.25F WCI  19
SOMERSET*      CLEAR     23  23 100 CALM      30.28S FOG
MONTICELLO*    CLEAR     19  17  92 CALM      30.29S FOG
MIDDLESBORO*   CLEAR     25  24  95 CALM      30.26F
HARLAN APT*    SUNNY     28  28 100 CALM      30.23F
HAZARD APT*    SUNNY     27  27 100 CALM      30.26S FOG
BLACK MTN*       N/A     27  23  86 CALM        N/A
PIKEVILLE APT* CLEAR     28  25  86 N5        30.24S WCI  23
BIG SANDY*     SUNNY     27  26  93 CALM      30.26F
MOREHEAD APT*  CLOUDY    30  27  86 CALM      30.30F
$$

KYZ035-036-041-042-044-050-067-078-099-211000
...CENTRAL KENTUCKY...

CITY           SKY/WX    TMP DP  RH WIND       PRES   REMARKS
MT STERLING*   CLEAR     25  23  93 CALM      30.29F FOG
FLEMING/MASON* CLOUDY    30  27  86 NE3       30.30S
DANVILLE*      CLEAR     21  19  93 CALM      30.29S
RICHMOND*      CLEAR     21  21 100 CALM      30.27F
LEXINGTON      CLEAR     22  20  92 E3        30.28S FOG
FRANKFORT      CLEAR     21  17  84 NW3       30.28S
$$

KYZ091>093-OHZ055-061-077-WVZ005-015-034-035-042-211000
...SOUTHERN OHIO/WEST VIRGINIA...

CITY           SKY/WX    TMP DP  RH WIND       PRES   REMARKS
COVINGTON      CLOUDY    31  22  69 E3        30.29S
COLUMBUS       CLOUDY    30  24  78 CALM      30.30S
DAYTON         MOCLDY    24  20  84 CALM      30.29F FOG
WILMINGTON     CLOUDY    23  21  92 NE3       30.28F FOG
HUNTINGTON     CLOUDY    30  26  85 CALM      30.29S
CHARLESTON     CLOUDY    31  25  78 CALM      30.28R
PINEVILLE*     CLOUDY    34  34  99 MISG      30.27F
BECKLEY        CLOUDY    31  26  82 N3        30.20S
BLUEFIELD      CLOUDY    33  28  81 CALM      30.19S
$$

VAZ002-007-008-TNZ017-027-036-066-071-211000
...SOUTHWEST VIRGINIA/EAST TENNESSEE...

CITY           SKY/WX    TMP DP  RH WIND       PRES   REMARKS
WISE*          CLEAR     30  30 100 N3        30.20S FOG
JONESVILLE*    SUNNY     25  25 100 CALM      30.25F
ABINGDON*      CLOUDY    38  37  96 CALM      30.20S FOG
BRISTOL        CLOUDY    37  35  92 CALM      30.22S FOG
KNOXVILLE      CLOUDY    39  32  76 N5        30.22F
OAK RIDGE      CLEAR     30  27  88 CALM      30.25S
CROSSVILLE     CLEAR     30  23  75 NE5       30.20F WCI  25
NASHVILLE      CLEAR     28  25  88 CALM      30.26S
$$

...KEY TO REMARKS...
VSB - VISIBILITY IN MILES
WCI - WIND CHILL INDEX
HX  - HEAT INDEX

$$



USA.gov is the U.S. government's official web portal to all federal, state and local government web resources and services.